map of MDY home
MDY - Airport
Location
City:  Sand Island, Midway Atoll, United States Minor Outlying Islands
Name:Henderson Field
ICAO:PMDY
IATA:MDY
FAA LID:MDY

Details
Type:Airport (Part 139 Class IV)
Use:Public/Civil
Latitude:28°12'05"N (28.201483)
Longitude:177°22'53"W (-177.381307)
Datum:WGS 1984
Elevation:18 ft (5 m)
Variation:7.40°E (WMM2015 magnetic declination)
-0.05° annual change
Runways:1
Longest:7800 × 150 ft (2377 × 45.5 m), paved

Time
Time Zone:UTC-11
Local Time:

Weather
METAR:PMDY 272356Z AUTO 13004KT 10SM CLR 25/20 A3020 RMK AO2 SLP226 T02500200 10256 20217 58009
TAF:PMDY 272339Z 2800/2824 VRB05KT P6SM SCT020
FM281200 10007KT P6SM SCT020 BKN035

Related Locations
Nearby:
Farthest:LUD: 11664 mi / 18771 km
Lüderitz [Lüderitz Airport (Diaz Point Airport)], KA, NA

Find:

   beyond  
but within

Other Information
Maps:
NOTAMs:
Links:
Sources:

  
flag of Midway Atoll   

Sectional Chart

Flight Planning
at skyvector.com

Satellite Image

Google Maps Satellite view

 

Copyright © 2004-2018 Karl L. Swartz. All rights reserved.
The Great Circle Mapper name and logo are trademarks of the Great Circle Mapper.
All other trademarks mentioned herein belong to their respective owners.
Please see credits for attibutions and further copyright information.

  Follow gcmap on Facebook Follow gcmap on Twitter Follow gcmap on Google+ GCmap on LinkedIn

hCard Microformat

Geo Microformat